| time (UTC) | temp F | wind direction | speed MPH | gust MPH | rain 1hr in | rain 24hr in | rain mn in | humidity % | barometer mb |
| 20260503001531 | 60 | 61 | 2.0 | 5.0 | 0.00 | 0.00 | 0.00 | 46 | 1017.8 |
| 20260503001031 | 60 | 46 | 1.0 | 5.0 | 0.00 | 0.00 | 0.00 | 47 | 1017.7 |
| 20260503000533 | 60 | 49 | 1.0 | 5.0 | 0.00 | 0.00 | 0.00 | 47 | 1017.9 |
| 20260503000029 | 60 | 19 | 1.0 | 5.0 | 0.00 | 0.00 | 0.00 | 47 | 1017.8 |
| 20260502235528 | 60 | 298 | 1.0 | 5.0 | 0.00 | 0.00 | 0.00 | 48 | 1017.9 |
| 20260502235027 | 60 | 19 | 1.0 | 5.0 | 0.00 | 0.00 | 0.00 | 47 | 1018.1 |
| 20260502234527 | 60 | 48 | 0.0 | 5.0 | 0.00 | 0.00 | 0.00 | 47 | 1018.1 |
| 20260502234027 | 61 | 5 | 1.0 | 5.0 | 0.00 | 0.00 | 0.00 | 47 | 1018.1 |
| 20260502233526 | 60 | 65 | 1.0 | 5.0 | 0.00 | 0.00 | 0.00 | 46 | 1018.2 |
| 20260502233126 | 60 | 318 | 1.0 | 3.0 | 0.00 | 0.00 | 0.00 | 47 | 1018.2 |
| 20260502232525 | 60 | 34 | 0.0 | 3.0 | 0.00 | 0.00 | 0.00 | 48 | 1018.3 |
| 20260502232025 | 60 | 313 | 1.0 | 4.0 | 0.00 | 0.00 | 0.00 | 47 | 1018.4 |
| 20260502231527 | 60 | 360 | 1.0 | 4.0 | 0.00 | 0.00 | 0.00 | 47 | 1018.4 |
| 20260502231025 | 60 | 360 | 1.0 | 4.0 | 0.00 | 0.00 | 0.00 | 47 | 1018.4 |
| 20260502230524 | 61 | 42 | 1.0 | 5.0 | 0.00 | 0.00 | 0.00 | 47 | 1018.4 |
| 20260502230125 | 61 | 44 | 1.0 | 5.0 | 0.00 | 0.00 | 0.00 | 46 | 1018.5 |
| 20260502225521 | 60 | 291 | 1.0 | 3.0 | 0.00 | 0.00 | 0.00 | 46 | 1018.6 |
| 20260502225021 | 60 | 290 | 1.0 | 4.0 | 0.00 | 0.00 | 0.00 | 45 | 1018.6 |
| 20260502224521 | 61 | 57 | 0.0 | 4.0 | 0.00 | 0.00 | 0.00 | 45 | 1018.6 |
| 20260502224021 | 61 | 264 | 0.0 | 3.0 | 0.00 | 0.00 | 0.00 | 44 | 1018.7 |
| 20260502223520 | 61 | 300 | 1.0 | 4.0 | 0.00 | 0.00 | 0.00 | 44 | 1018.6 |
| 20260502223020 | 61 | 43 | 1.0 | 4.0 | 0.00 | 0.00 | 0.00 | 44 | 1018.6 |
| 20260502222519 | 61 | 332 | 0.0 | 4.0 | 0.00 | 0.00 | 0.00 | 43 | 1018.6 |
| 20260502222019 | 61 | 119 | 0.0 | 4.0 | 0.00 | 0.00 | 0.00 | 43 | 1018.7 |
| 20260502221517 | 61 | 299 | 1.0 | 5.0 | 0.00 | 0.00 | 0.00 | 43 | 1018.7 |
| 20260502221017 | 61 | 74 | 1.0 | 5.0 | 0.00 | 0.00 | 0.00 | 42 | 1018.7 |
| 20260502220516 | 62 | 15 | 0.0 | 3.0 | 0.00 | 0.00 | 0.00 | 42 | 1018.7 |
| 20260502220017 | 62 | 137 | 1.0 | 5.0 | 0.00 | 0.00 | 0.00 | 41 | 1018.7 |
| 20260502215514 | 62 | 48 | 1.0 | 5.0 | 0.00 | 0.00 | 0.00 | 41 | 1018.7 |
| 20260502215013 | 62 | 101 | 1.0 | 3.0 | 0.00 | 0.00 | 0.00 | 41 | 1018.7 |
| 20260502214513 | 62 | 40 | 0.0 | 3.0 | 0.00 | 0.00 | 0.00 | 40 | 1018.8 |
| 20260502214013 | 62 | 36 | 1.0 | 3.0 | 0.00 | 0.00 | 0.00 | 40 | 1018.8 |
| 20260502213518 | 62 | 16 | 1.0 | 6.0 | 0.00 | 0.00 | 0.00 | 40 | 1018.8 |
| 20260502213014 | 61 | 355 | 2.0 | 6.0 | 0.00 | 0.00 | 0.00 | 40 | 1018.8 |
| 20260502212513 | 61 | 342 | 1.0 | 4.0 | 0.00 | 0.00 | 0.00 | 40 | 1019.0 |
| 20260502212011 | 61 | 14 | 1.0 | 4.0 | 0.00 | 0.00 | 0.00 | 41 | 1018.9 |
| 20260502211520 | 61 | 302 | 1.0 | 3.0 | 0.00 | 0.00 | 0.00 | 42 | 1018.9 |
| 20260502211015 | 62 | 360 | 1.0 | 4.0 | 0.00 | 0.00 | 0.00 | 41 | 1018.9 |
| 20260502210511 | 62 | 44 | 1.0 | 4.0 | 0.00 | 0.00 | 0.00 | 40 | 1018.9 |
| 20260502210011 | 62 | 351 | 1.0 | 4.0 | 0.00 | 0.00 | 0.00 | 40 | 1018.9 |
| 20260502205511 | 62 | 105 | 1.0 | 4.0 | 0.00 | 0.00 | 0.00 | 40 | 1019.1 |
| 20260502205011 | 62 | 58 | 1.0 | 4.0 | 0.00 | 0.00 | 0.00 | 40 | 1019.0 |
| 20260502204510 | 62 | 355 | 0.0 | 4.0 | 0.00 | 0.00 | 0.00 | 39 | 1019.0 |
| 20260502204011 | 62 | 61 | 1.0 | 4.0 | 0.00 | 0.00 | 0.00 | 40 | 1019.1 |
| 20260502203509 | 61 | 36 | 1.0 | 3.0 | 0.00 | 0.00 | 0.00 | 40 | 1019.2 |
| 20260502203009 | 62 | 78 | 1.0 | 3.0 | 0.00 | 0.00 | 0.00 | 40 | 1019.1 |
| 20260502202508 | 62 | 78 | 1.0 | 3.0 | 0.00 | 0.00 | 0.00 | 38 | 1019.1 |
| 20260502202008 | 62 | 261 | 1.0 | 4.0 | 0.00 | 0.00 | 0.00 | 38 | 1019.1 |
| 20260502201507 | 62 | 269 | 1.0 | 3.0 | 0.00 | 0.00 | 0.00 | 38 | 1019.1 |
| 20260502201007 | 62 | 5 | 1.0 | 3.0 | 0.00 | 0.00 | 0.00 | 38 | 1019.2 |
| 20260502200507 | 63 | 338 | 1.0 | 3.0 | 0.00 | 0.00 | 0.00 | 38 | 1019.1 |
| 20260502200007 | 63 | 137 | 1.0 | 3.0 | 0.00 | 0.00 | 0.00 | 36 | 1019.3 |
| 20260502195507 | 63 | 74 | 1.0 | 4.0 | 0.00 | 0.00 | 0.00 | 37 | 1019.2 |
| 20260502195006 | 63 | 117 | 1.0 | 4.0 | 0.00 | 0.00 | 0.00 | 36 | 1019.2 |
| 20260502194505 | 63 | 65 | 1.0 | 4.0 | 0.00 | 0.00 | 0.00 | 37 | 1019.2 |
| 20260502194005 | 63 | 15 | 1.0 | 4.0 | 0.00 | 0.00 | 0.00 | 37 | 1019.3 |
| 20260502193505 | 64 | 148 | 0.0 | 3.0 | 0.00 | 0.00 | 0.00 | 36 | 1019.3 |
| 20260502193005 | 64 | 5 | 1.0 | 3.0 | 0.00 | 0.00 | 0.00 | 36 | 1019.2 |
| 20260502192505 | 64 | 42 | 1.0 | 6.0 | 0.00 | 0.00 | 0.00 | 35 | 1019.3 |
| 20260502192005 | 64 | 80 | 1.0 | 8.0 | 0.00 | 0.00 | 0.00 | 35 | 1019.3 |
| 20260502191503 | 64 | 81 | 2.0 | 8.0 | 0.00 | 0.00 | 0.00 | 35 | 1019.2 |
| 20260502191003 | 64 | 74 | 2.0 | 5.0 | 0.00 | 0.00 | 0.00 | 36 | 1019.2 |
| 20260502190503 | 64 | 75 | 2.0 | 5.0 | 0.00 | 0.00 | 0.00 | 36 | 1019.3 |
| 20260502190004 | 64 | 92 | 2.0 | 5.0 | 0.00 | 0.00 | 0.00 | 36 | 1019.3 |
| 20260502185502 | 64 | 104 | 2.0 | 4.0 | 0.00 | 0.00 | 0.00 | 37 | 1019.3 |
| 20260502185002 | 63 | 78 | 1.0 | 3.0 | 0.00 | 0.00 | 0.00 | 37 | 1019.4 |
| 20260502184503 | 63 | 31 | 1.0 | 5.0 | 0.00 | 0.00 | 0.00 | 37 | 1019.5 |
| 20260502184002 | 63 | 53 | 1.0 | 3.0 | 0.00 | 0.00 | 0.00 | 37 | 1019.4 |
| 20260502183504 | 64 | 63 | 1.0 | 3.0 | 0.00 | 0.00 | 0.00 | 38 | 1019.3 |
| 20260502183005 | 64 | 34 | 0.0 | 3.0 | 0.00 | 0.00 | 0.00 | 38 | 1019.2 |
| 20260502182501 | 64 | 78 | 1.0 | 3.0 | 0.00 | 0.00 | 0.00 | 36 | 1019.3 |
| 20260502182002 | 64 | 144 | 0.0 | 2.0 | 0.00 | 0.00 | 0.00 | 35 | 1019.3 |
| 20260502181600 | 64 | 157 | 0.0 | 2.0 | 0.00 | 0.00 | 0.00 | 35 | 1019.3 |
| 20260502181101 | 65 | 159 | 0.0 | 3.0 | 0.00 | 0.00 | 0.00 | 36 | 1019.3 |
| 20260502180600 | 65 | 191 | 0.0 | 1.0 | 0.00 | 0.00 | 0.00 | 36 | 1019.3 |
| 20260502164053 | 70 | 155 | 2.0 | 8.0 | 0.00 | 0.00 | 0.00 | 33 | 1019.7 |
| 20260502163552 | 70 | 161 | 3.0 | 7.0 | 0.00 | 0.00 | 0.00 | 32 | 1019.9 |
| 20260502163056 | 70 | 257 | 1.0 | 4.0 | 0.00 | 0.00 | 0.00 | 34 | 1019.9 |
| 20260502162554 | 70 | 176 | 2.0 | 8.0 | 0.00 | 0.00 | 0.00 | 35 | 1019.9 |
| 20260502162055 | 70 | 159 | 3.0 | 10.0 | 0.00 | 0.00 | 0.00 | 32 | 1020.1 |
| 20260502161555 | 70 | 128 | 3.0 | 7.0 | 0.00 | 0.00 | 0.00 | 32 | 1020.1 |
| 20260502161050 | 70 | 190 | 2.0 | 9.0 | 0.00 | 0.00 | 0.00 | 33 | 1020.1 |
| 20260502160550 | 71 | 205 | 4.0 | 9.0 | 0.00 | 0.00 | 0.00 | 32 | 1020.2 |
| 20260502152046 | 71 | 106 | 1.0 | 6.0 | 0.00 | 0.00 | 0.00 | 33 | 1020.8 |
| 20260502151550 | 71 | 88 | 2.0 | 8.0 | 0.00 | 0.00 | 0.00 | 33 | 1020.8 |
| 20260502151045 | 71 | 273 | 2.0 | 8.0 | 0.00 | 0.00 | 0.00 | 35 | 1020.9 |
| 20260502150544 | 71 | 175 | 3.0 | 9.0 | 0.00 | 0.00 | 0.00 | 31 | 1021.0 |
| 20260502130532 | 70 | 177 | 3.0 | 10.0 | 0.00 | 0.00 | 0.00 | 34 | 1022.5 |
| 20260502123529 | 70 | 161 | 2.0 | 8.0 | 0.00 | 0.00 | 0.00 | 37 | 1022.8 |
| 20260502123026 | 70 | 130 | 4.0 | 9.0 | 0.00 | 0.00 | 0.00 | 35 | 1022.8 |
| 20260502122525 | 69 | 240 | 2.0 | 10.0 | 0.00 | 0.00 | 0.00 | 38 | 1022.7 |
| 20260502122025 | 69 | 123 | 4.0 | 10.0 | 0.00 | 0.00 | 0.00 | 35 | 1023.0 |
| 20260502121524 | 69 | 191 | 5.0 | 11.0 | 0.00 | 0.00 | 0.00 | 36 | 1023.0 |
| 20260502121023 | 69 | 171 | 3.0 | 11.0 | 0.00 | 0.00 | 0.00 | 41 | 1023.0 |
| 20260502120523 | 69 | 133 | 3.0 | 7.0 | 0.00 | 0.00 | 0.00 | 40 | 1023.1 |
| 20260502115524 | 69 | 186 | 2.0 | 9.0 | 0.00 | 0.00 | 0.00 | 40 | 1023.2 |
| 20260502115020 | 69 | 146 | 4.0 | 9.0 | 0.00 | 0.00 | 0.00 | 40 | 1023.4 |
| 20260502114519 | 68 | 251 | 1.0 | 9.0 | 0.00 | 0.00 | 0.00 | 43 | 1023.4 |
| 20260502114019 | 68 | 153 | 3.0 | 9.0 | 0.00 | 0.00 | 0.00 | 41 | 1023.6 |
| 20260502113519 | 68 | 174 | 2.0 | 9.0 | 0.00 | 0.00 | 0.00 | 37 | 1023.6 |
| 20260502113019 | 69 | 215 | 2.0 | 9.0 | 0.00 | 0.00 | 0.00 | 43 | 1023.7 |
| 20260502112517 | 69 | 213 | 3.0 | 6.0 | 0.00 | 0.00 | 0.00 | 39 | 1023.8 |
| 20260502112017 | 68 | 245 | 2.0 | 8.0 | 0.00 | 0.00 | 0.00 | 39 | 1023.8 |
| 20260502111516 | 68 | 182 | 3.0 | 8.0 | 0.00 | 0.00 | 0.00 | 42 | 1024.0 |
| 20260502111016 | 68 | 172 | 4.0 | 8.0 | 0.00 | 0.00 | 0.00 | 38 | 1023.9 |
| 20260502110515 | 68 | 192 | 2.0 | 9.0 | 0.00 | 0.00 | 0.00 | 43 | 1024.0 |
| 20260502110019 | 68 | 148 | 4.0 | 8.0 | 0.00 | 0.00 | 0.00 | 41 | 1024.1 |
| 20260502105516 | 67 | 128 | 2.0 | 10.0 | 0.00 | 0.00 | 0.00 | 44 | 1024.1 |
| 20260502105014 | 68 | 201 | 3.0 | 10.0 | 0.00 | 0.00 | 0.00 | 46 | 1024.2 |
| 20260502104534 | 67 | 173 | 1.0 | 10.0 | 0.00 | 0.00 | 0.00 | 46 | 1024.2 |
| 20260502104011 | 67 | 202 | 2.0 | 10.0 | 0.00 | 0.00 | 0.00 | 43 | 1024.3 |
| 20260502103511 | 67 | 157 | 3.0 | 12.0 | 0.00 | 0.00 | 0.00 | 46 | 1024.4 |
| 20260502103010 | 67 | 208 | 4.0 | 12.0 | 0.00 | 0.00 | 0.00 | 43 | 1024.3 |
| 20260502102509 | 66 | 153 | 2.0 | 9.0 | 0.00 | 0.00 | 0.00 | 44 | 1024.4 |
| 20260502102009 | 66 | 132 | 2.0 | 9.0 | 0.00 | 0.00 | 0.00 | 46 | 1024.6 |
| 20260502101506 | 66 | 158 | 2.0 | 9.0 | 0.00 | 0.00 | 0.00 | 46 | 1024.6 |
| 20260502101006 | 67 | 180 | 3.0 | 7.0 | 0.00 | 0.00 | 0.00 | 44 | 1024.7 |
| 20260502100505 | 66 | 191 | 2.0 | 6.0 | 0.00 | 0.00 | 0.00 | 46 | 1024.6 |
| 20260502091053 | 65 | 167 | 4.0 | 10.0 | 0.00 | 0.00 | 0.00 | 44 | 1025.2 |
| 20260502090552 | 65 | 69 | 4.0 | 8.0 | 0.00 | 0.00 | 0.00 | 42 | 1025.1 |
| 20260502071021 | 61 | 168 | 3.0 | 7.0 | 0.00 | 0.00 | 0.00 | 50 | 1025.7 |
| 20260502070522 | 61 | 147 | 4.0 | 7.0 | 0.00 | 0.00 | 0.00 | 50 | 1025.7 |
| 20260502070022 | 61 | 185 | 2.0 | 5.0 | 0.00 | 0.00 | 0.00 | 51 | 1025.7 |
| 20260502065518 | 61 | 132 | 3.0 | 5.0 | 0.00 | 0.00 | 0.00 | 51 | 1025.7 |
| 20260502065017 | 61 | 175 | 3.0 | 6.0 | 0.00 | 0.00 | 0.00 | 52 | 1025.8 |
| 20260502064515 | 60 | 132 | 2.0 | 5.0 | 0.00 | 0.00 | 0.00 | 53 | 1025.7 |
| 20260502064013 | 60 | 182 | 2.0 | 5.0 | 0.00 | 0.00 | 0.00 | 53 | 1025.8 |
| 20260502063513 | 60 | 137 | 3.0 | 5.0 | 0.00 | 0.00 | 0.00 | 52 | 1025.7 |
| 20260502063011 | 60 | 140 | 2.0 | 4.0 | 0.00 | 0.00 | 0.00 | 52 | 1025.8 |
| 20260502062509 | 60 | 161 | 2.0 | 5.0 | 0.00 | 0.00 | 0.00 | 54 | 1025.8 |
| 20260502062008 | 60 | 159 | 2.0 | 5.0 | 0.00 | 0.00 | 0.00 | 53 | 1025.8 |
| 20260502061506 | 60 | 138 | 0.0 | 3.0 | 0.00 | 0.00 | 0.00 | 54 | 1025.7 |
| 20260502061004 | 59 | 137 | 0.0 | 4.0 | 0.00 | 0.00 | 0.00 | 54 | 1025.7 |
| 20260502060503 | 59 | 136 | 1.0 | 6.0 | 0.00 | 0.00 | 0.00 | 54 | 1025.8 |
| 20260502060002 | 59 | 84 | 0.0 | 6.0 | 0.00 | 0.00 | 0.00 | 55 | 1025.7 |
| 20260502055501 | 58 | 111 | 1.0 | 4.0 | 0.00 | 0.00 | 0.00 | 54 | 1025.7 |
| 20260502055102 | 58 | 115 | 0.0 | 3.0 | 0.00 | 0.00 | 0.00 | 55 | 1025.8 |
| 20260502054600 | 58 | 115 | 0.0 | 3.0 | 0.00 | 0.00 | 0.00 | 55 | 1025.8 |
| 20260502054100 | 58 | 115 | 1.0 | 3.0 | 0.00 | 0.00 | 0.00 | 55 | 1025.8 |
| 20260502053558 | 57 | 115 | 2.0 | 3.0 | 0.00 | 0.00 | 0.00 | 55 | 1025.7 |
| 20260502053055 | 57 | 117 | 1.0 | 3.0 | 0.00 | 0.00 | 0.00 | 55 | 1025.7 |
| 20260502052554 | 56 | 118 | 1.0 | 3.0 | 0.00 | 0.00 | 0.00 | 56 | 1025.8 |
| 20260502052054 | 56 | 120 | 0.0 | 3.0 | 0.00 | 0.00 | 0.00 | 57 | 1025.8 |
| 20260502051634 | 56 | 116 | 1.0 | 3.0 | 0.00 | 0.00 | 0.00 | 57 | 1025.7 |
| 20260502051053 | 56 | 78 | 0.0 | 2.0 | 0.00 | 0.00 | 0.00 | 56 | 1025.7 |
| 20260502050552 | 56 | 78 | 1.0 | 3.0 | 0.00 | 0.00 | 0.00 | 56 | 1025.7 |
| 20260502050052 | 56 | 79 | 0.0 | 3.0 | 0.00 | 0.00 | 0.00 | 56 | 1025.7 |
| 20260502045552 | 55 | 78 | 1.0 | 4.0 | 0.00 | 0.00 | 0.00 | 56 | 1025.7 |
| 20260502045051 | 55 | 83 | 0.0 | 4.0 | 0.00 | 0.00 | 0.00 | 55 | 1025.7 |
| 20260502044601 | 55 | 56 | 1.0 | 4.0 | 0.00 | 0.00 | 0.00 | 56 | 1025.7 |
| 20260502044049 | 55 | 30 | 0.0 | 3.0 | 0.00 | 0.00 | 0.00 | 56 | 1025.7 |
| 20260502043548 | 55 | 64 | 0.0 | 3.0 | 0.00 | 0.00 | 0.00 | 55 | 1025.6 |
| 20260502043050 | 56 | 33 | 1.0 | 5.0 | 0.00 | 0.00 | 0.00 | 55 | 1025.6 |
| 20260502042551 | 56 | 46 | 2.0 | 5.0 | 0.00 | 0.00 | 0.00 | 55 | 1025.7 |
| 20260502042048 | 56 | 43 | 2.0 | 4.0 | 0.00 | 0.00 | 0.00 | 55 | 1025.6 |
| 20260502041547 | 56 | 69 | 1.0 | 5.0 | 0.00 | 0.00 | 0.00 | 55 | 1025.7 |
| 20260502041050 | 56 | 46 | 2.0 | 5.0 | 0.00 | 0.00 | 0.00 | 55 | 1025.7 |
| 20260502040546 | 56 | 16 | 2.0 | 5.0 | 0.00 | 0.00 | 0.00 | 55 | 1025.8 |
| 20260502040046 | 55 | 42 | 1.0 | 4.0 | 0.00 | 0.00 | 0.00 | 55 | 1025.7 |
| 20260502035546 | 56 | 44 | 0.0 | 4.0 | 0.00 | 0.00 | 0.00 | 55 | 1025.7 |
| 20260502035045 | 56 | 12 | 1.0 | 5.0 | 0.00 | 0.00 | 0.00 | 55 | 1025.8 |
| 20260502034547 | 55 | 81 | 1.0 | 5.0 | 0.00 | 0.00 | 0.00 | 56 | 1025.8 |
| 20260502034045 | 55 | 74 | 1.0 | 3.0 | 0.00 | 0.00 | 0.00 | 56 | 1025.8 |
| 20260502033545 | 55 | 78 | 1.0 | 3.0 | 0.00 | 0.00 | 0.00 | 56 | 1025.8 |
| 20260502033050 | 55 | 30 | 1.0 | 3.0 | 0.00 | 0.00 | 0.00 | 56 | 1025.9 |
| 20260502032543 | 55 | 117 | 0.0 | 4.0 | 0.00 | 0.00 | 0.00 | 56 | 1025.9 |
| 20260502032043 | 55 | 86 | 1.0 | 4.0 | 0.00 | 0.00 | 0.00 | 56 | 1026.0 |
| 20260502031600 | 55 | 32 | 1.0 | 3.0 | 0.00 | 0.00 | 0.00 | 55 | 1026.0 |
| 20260502031043 | 55 | 85 | 1.0 | 4.0 | 0.00 | 0.00 | 0.00 | 56 | 1025.9 |
| 20260502030545 | 55 | 74 | 1.0 | 3.0 | 0.00 | 0.00 | 0.00 | 57 | 1026.0 |
| 20260502030042 | 55 | 74 | 0.0 | 3.0 | 0.00 | 0.00 | 0.00 | 56 | 1026.0 |
| 20260502025541 | 55 | 74 | 1.0 | 3.0 | 0.00 | 0.00 | 0.00 | 56 | 1026.1 |
| 20260502025041 | 55 | 75 | 2.0 | 3.0 | 0.00 | 0.00 | 0.00 | 55 | 1026.1 |
| 20260502024541 | 56 | 360 | 1.0 | 4.0 | 0.00 | 0.00 | 0.00 | 55 | 1026.1 |
| 20260502024040 | 56 | 30 | 1.0 | 5.0 | 0.00 | 0.00 | 0.00 | 54 | 1026.0 |
| 20260502023642 | 56 | 53 | 1.0 | 5.0 | 0.00 | 0.00 | 0.00 | 55 | 1026.1 |
| 20260502023040 | 55 | 26 | 1.0 | 4.0 | 0.00 | 0.00 | 0.00 | 55 | 1026.1 |
| 20260502022540 | 55 | 29 | 1.0 | 4.0 | 0.00 | 0.00 | 0.00 | 55 | 1026.2 |
| 20260502022038 | 55 | 36 | 1.0 | 3.0 | 0.00 | 0.00 | 0.00 | 56 | 1026.2 |
| 20260502021539 | 55 | 51 | 2.0 | 3.0 | 0.00 | 0.00 | 0.00 | 55 | 1026.2 |
| 20260502021038 | 55 | 360 | 2.0 | 3.0 | 0.00 | 0.00 | 0.00 | 56 | 1026.2 |
| 20260502020541 | 55 | 28 | 1.0 | 3.0 | 0.00 | 0.00 | 0.00 | 56 | 1026.1 |
| 20260502020041 | 55 | 18 | 1.0 | 3.0 | 0.00 | 0.00 | 0.00 | 56 | 1026.2 |
| 20260502015538 | 55 | 12 | 1.0 | 3.0 | 0.00 | 0.00 | 0.00 | 56 | 1026.2 |
| 20260502015037 | 55 | 5 | 1.0 | 3.0 | 0.00 | 0.00 | 0.00 | 56 | 1026.2 |
| 20260502014538 | 55 | 5 | 2.0 | 3.0 | 0.00 | 0.00 | 0.00 | 56 | 1026.4 |
| 20260502014035 | 55 | 360 | 1.0 | 3.0 | 0.00 | 0.00 | 0.00 | 56 | 1026.3 |
| 20260502013535 | 55 | 17 | 1.0 | 3.0 | 0.00 | 0.00 | 0.00 | 56 | 1026.3 |
| 20260502013035 | 55 | 5 | 2.0 | 3.0 | 0.00 | 0.00 | 0.00 | 55 | 1026.5 |
| 20260502012538 | 56 | 350 | 2.0 | 3.0 | 0.00 | 0.00 | 0.00 | 55 | 1026.6 |
| 20260502012034 | 56 | 360 | 2.0 | 3.0 | 0.00 | 0.00 | 0.00 | 55 | 1026.6 |
| 20260502011540 | 56 | 9 | 2.0 | 3.0 | 0.00 | 0.00 | 0.00 | 55 | 1026.6 |
| 20260502011032 | 56 | 63 | 1.0 | 3.0 | 0.00 | 0.00 | 0.00 | 55 | 1026.6 |
| 20260502010533 | 56 | 63 | 2.0 | 3.0 | 0.00 | 0.00 | 0.00 | 55 | 1026.5 |
| 20260502010031 | 56 | 64 | 1.0 | 3.0 | 0.00 | 0.00 | 0.00 | 55 | 1026.6 |
| 20260502005531 | 56 | 65 | 1.0 | 3.0 | 0.00 | 0.00 | 0.00 | 55 | 1026.6 |
| 20260502005030 | 55 | 65 | 2.0 | 3.0 | 0.00 | 0.00 | 0.00 | 56 | 1026.6 |
| 20260502004529 | 55 | 65 | 2.0 | 3.0 | 0.00 | 0.00 | 0.00 | 56 | 1026.6 |
| 20260502004028 | 55 | 65 | 2.0 | 3.0 | 0.00 | 0.00 | 0.00 | 56 | 1026.8 |
| 20260502003527 | 55 | 65 | 1.0 | 3.0 | 0.00 | 0.00 | 0.00 | 57 | 1026.7 |
| 20260502003025 | 54 | 65 | 1.0 | 3.0 | 0.00 | 0.00 | 0.00 | 59 | 1026.7 |
| 20260502002524 | 54 | 65 | 1.0 | 3.0 | 0.00 | 0.00 | 0.00 | 60 | 1026.8 |
| 20260502002029 | 53 | 65 | 1.0 | 3.0 | 0.00 | 0.00 | 0.00 | 61 | 1026.8 |